Time,TemperatureF,DewpointF,PressureIn,WindDirection,WindDirectionDegrees,WindSpeedMPH,WindSpeedGustMPH,Humidity,HourlyPrecipIn,Conditions,Clouds,dailyrainin,SoftwareType,DateUTC
2013-07-15 07:43:00,62.0,49.0,-100.00,SE,135,3.0,7.0,62,-99.99,,,-99.99,,2013-07-15 13:43:00,
2013-07-15 08:11:00,67.0,49.0,-100.00,WSW,255,0.0,4.0,53,-99.99,,,-99.99,,2013-07-15 14:11:00,
2013-07-15 08:33:00,69.0,49.0,-100.00,SSE,150,1.0,4.0,47,-99.99,,,-99.99,,2013-07-15 14:33:00,
2013-07-15 08:42:00,69.0,49.0,-100.00,SSE,150,2.0,4.0,48,-99.99,,,-99.99,,2013-07-15 14:42:00,
2013-07-15 09:45:00,74.0,48.0,-100.00,ESE,110,1.0,6.0,38,-99.99,,,-99.99,,2013-07-15 15:45:00,
2013-07-15 10:44:00,76.0,47.0,-100.00,North,0,5.0,9.0,36,-99.99,,,-99.99,,2013-07-15 16:44:00,
2013-07-15 11:03:00,76.0,47.0,-100.00,North,0,7.0,9.0,35,-99.99,,,-99.99,,2013-07-15 17:03:00,
2013-07-15 12:14:00,79.0,46.0,-100.00,North,5,7.0,11.0,31,-99.99,,,-99.99,,2013-07-15 18:14:00,
2013-07-15 12:45:00,82.0,46.0,-100.00,North,0,6.0,12.0,28,-99.99,,,-99.99,,2013-07-15 18:45:00,
2013-07-15 13:45:00,83.0,37.0,-100.00,North,0,7.0,11.0,19,-99.99,,,-99.99,,2013-07-15 19:45:00,
2013-07-15 16:43:00,86.0,33.0,-100.00,NNE,25,8.0,14.0,14,-99.99,,,-99.99,,2013-07-15 22:43:00,
2013-07-15 17:04:00,87.0,33.0,-100.00,NNE,15,10.0,16.0,14,-99.99,,,-99.99,,2013-07-15 23:04:00,
2013-07-15 17:13:00,87.0,32.0,-100.00,NW,325,7.0,11.0,14,-99.99,,,-99.99,,2013-07-15 23:13:00,
2013-07-15 17:45:00,88.0,32.0,-100.00,NW,325,6.0,11.0,13,-99.99,,,-99.99,,2013-07-15 23:45:00,
2013-07-15 17:53:00,89.0,33.0,-100.00,North,350,4.0,7.0,13,-99.99,,,-99.99,,2013-07-15 23:53:00,
2013-07-15 18:03:00,90.0,33.0,-100.00,WNW,295,3.0,10.0,13,-99.99,,,-99.99,,2013-07-16 00:03:00,
2013-07-15 18:45:00,88.0,32.0,-100.00,NW,305,8.0,11.0,13,-99.99,,,-99.99,,2013-07-16 00:45:00,
2013-07-15 19:05:00,88.0,32.0,-100.00,NW,305,2.0,6.0,13,-99.99,,,-99.99,,2013-07-16 01:05:00,
2013-07-15 19:14:00,88.0,32.0,-100.00,WNW,300,8.0,10.0,13,-99.99,,,-99.99,,2013-07-16 01:14:00,
2013-07-15 19:46:00,87.0,31.0,-100.00,NW,320,7.0,9.0,13,-99.99,,,-99.99,,2013-07-16 01:46:00,
2013-07-15 20:46:00,82.0,29.0,-100.00,ENE,70,6.0,11.0,14,-99.99,,,-99.99,,2013-07-16 02:46:00,
2013-07-15 22:43:00,72.0,40.0,-100.00,SE,135,11.0,16.0,31,-99.99,,,-99.99,,2013-07-16 04:43:00,
2013-07-15 23:43:00,67.0,40.0,-100.00,ESE,115,10.0,11.0,36,-99.99,,,-99.99,,2013-07-16 05:43:00,